User: anonymous
Location: Caltech
(34.1382°N, 118.1253°W)
Time: 17:45:09
(UTC-07:00)
Language:

Cosmos 2360 Rocket - Orbit

View from above orbital plane
View from above orbital plane
View from above satellite
View from above satellite

Ground track
Ground track

The orbit data is extracted from the following two-line orbital elements,

1 25407U 98045B   14114.10257083 -.00000046  00000-0  71562-6 0  4499
2 25407 071.0109 298.1018 0007225 175.5342 320.8928 14.15653601813411
Epoch (UTC): 24 April 2014 02:27:42
Eccentricity: 0.0007225
inclination: 71.0109°
perigee height: 835 km
apogee height: 845 km
right ascension of ascending node: 298.1018°
argument of perigee: 175.5342°
revolutions per day: 14.15653601
mean anomaly at epoch: 320.8928°
orbit number at epoch: 81341

The dashed part of the orbit path shows where the satellite is in the earth's shadow,  

DLR